sat.trackr.live / text

‹ back to catalog

STARLINK-30530

NORAD 58005 · 2023-153Q

PAYLOAD ACTIVE UNKNOWN

§ Identity

Operator
Country
US
Launch date
2023-10-05
Launch site
AFETR
Launch vehicle
Mass (kg)
RCS (m²)

Purposes: comms

External: N2YO · Heavens-Above · Gunter

§ Orbital elements

Epoch: 2026-05-24T23:11:15.887040Z

Period
94.27 min
Inclination
43.0056°
Eccentricity
0.0001339
Mean motion
15.27568297 rev/d
Perigee alt
482.2 km
Apogee alt
484.0 km
Semi-major
6,861.2 km
B*
2.3748e-5
RAAN
356.1267°
Arg perigee
264.3087°
Mean anomaly
95.7612°
Rev number
14,656

§ Raw data

STARLINK-305301 58005U 23153Q   26144.96615610  .00000391  00000+0  23748-4 0  99932 58005  43.0056 356.1267 0001339 264.3087  95.7612 15.27568297146568

JSON: /api/v1/satellites/58005 · /tle

For live sub-satellite position, see the globe view (requires WebGL).

§ Visibility from observer

Set your observer location to see the next 7 days of passes ≥ 10°. The values pass through the URL so the page stays shareable.

No JS? Fill the form by hand. The geolocation button needs JavaScript.